Weather History for KMCF - August, 2014

Change the Weather History Date:

Thursday, August 28, 2014

  Actual Average Record
Temperature  
Mean Temperature 85 °F -  
Max Temperature 95 °F 88 °F 95 °F (1996)
Min Temperature 75 °F 73 °F 71 °F (1997)
Cooling Degree Days 20    
Growing Degree Days 35 (Base 50)    
Moisture  
Dew Point 75 °F    
Average Humidity 75    
Maximum Humidity 100    
Minimum Humidity 42    
Precipitation  
Precipitation 0.00 in - - ()
Sea Level Pressure  
Sea Level Pressure 29.99 in    
Wind  
Wind Speed 8 mph (ESE)    
Max Wind Speed 12 mph    
Max Gust Speed -    
Visibility 10 miles    
Events      
Averages and records for this station are not official NWS values.
T = Trace of Precipitation, MM = Missing Value Source: NWS Daily Summary

Daily Weather History Graph

Daily Weather History Graph

Search for Another Location

Airport or City:

Trip Planner

Search our weather history database for the weather conditions in past years. The results will help you decide how hot, cold, wet, or windy it might be!

Date:

Astronomy

Aug. 28, 2014 Rise Set
Actual Time 7:06 AM EDT 7:55 PM EDT
Civil Twilight 6:42 AM EDT 8:19 PM EDT
Nautical Twilight 6:14 AM EDT 8:47 PM EDT
Astronomical Twilight 5:45 AM EDT 9:16 PM EDT
Moon 9:39 AM EDT (8/28) 9:38 PM EDT (8/28)
Length of Visible Light 13h 36m
Length of Day
12h 48m
Waxing Crescent, 8% of the Moon is Illuminated
Aug 28
Waxing Crescent
Sep 2
First Quarter
Sep 8
Full
Sep 15
Last Quarter
Sep 24
New

Hourly Weather History & Observations

Time (EDT) Temp. Heat Index Dew Point Humidity Pressure Visibility Wind Dir Wind Speed Gust Speed Precip Events Conditions
12:58 AM 80.1 °F 84.9 °F 74.8 °F 84% 30.01 in 10.0 mi ESE 9.2 mph - N/A   Mostly Cloudy
1:58 AM 79.3 °F - 75.2 °F 87% 30.01 in 10.0 mi ESE 11.5 mph - N/A   Scattered Clouds
2:58 AM 77.7 °F - 75.6 °F 93% 30.00 in 10.0 mi ESE 6.9 mph - N/A   Clear
3:58 AM 77.2 °F - 75.9 °F 96% 29.98 in 10.0 mi East 5.8 mph - N/A   Clear
4:58 AM 75.2 °F - 73.8 °F 95% 29.98 in 10.0 mi East 4.6 mph - N/A   Clear
5:58 AM 75.4 °F - 75.4 °F 100% 29.99 in 10.0 mi East 8.1 mph - N/A   Clear
6:58 AM 76.3 °F - 76.3 °F 100% 30.00 in 10.0 mi East 8.1 mph - N/A   Clear
7:58 AM 77.0 °F - 77.0 °F 100% 30.01 in 10.0 mi East 6.9 mph - N/A   Clear
8:58 AM 80.2 °F 86.6 °F 77.7 °F 92% 30.02 in 10.0 mi East 10.4 mph - N/A   Clear
9:58 AM 83.8 °F 94.3 °F 77.7 °F 82% 30.02 in 10.0 mi ESE 8.1 mph - N/A   Clear
10:58 AM 87.4 °F 98.2 °F 76.3 °F 69% 30.02 in 10.0 mi Variable 5.8 mph - N/A   Clear
11:58 AM 90.7 °F 101.9 °F 75.6 °F 61% 30.02 in 10.0 mi East 5.8 mph - N/A   Clear
12:58 PM 92.5 °F 103.2 °F 74.5 °F 56% 30.00 in 10.0 mi East 6.9 mph - N/A   Clear
1:58 PM 93.4 °F 103.4 °F 74.1 °F 53% 29.99 in 10.0 mi East 10.4 mph - N/A   Clear
2:58 PM 93.6 °F 100.7 °F 71.4 °F 48% 29.96 in 10.0 mi ESE 5.8 mph - N/A   Clear
3:58 PM 95.4 °F 102.7 °F 71.2 °F 45% 29.95 in 10.0 mi East 4.6 mph - N/A   Clear
4:58 PM 94.8 °F 100.3 °F 69.3 °F 43% 29.94 in 10.0 mi ESE 8.1 mph - N/A   Partly Cloudy
5:58 PM 94.5 °F 99.1 °F 67.8 °F 42% 29.93 in 10.0 mi East 5.8 mph - N/A   Clear
6:58 PM 92.8 °F 99.2 °F 70.3 °F 48% 29.94 in 10.0 mi East 9.2 mph - N/A   Clear
7:58 PM 87.4 °F 102.6 °F 79.3 °F 77% 29.95 in 10.0 mi SSW 11.5 mph - N/A   Mostly Cloudy
8:58 PM 85.1 °F 97.6 °F 78.8 °F 81% 29.97 in 10.0 mi SSW 9.2 mph - N/A   Clear
9:58 PM 85.3 °F 95.8 °F 77.0 °F 76% 30.00 in 10.0 mi SSE 5.8 mph - N/A   Clear
10:58 PM 84.0 °F 95.2 °F 78.4 °F 83% 30.01 in 10.0 mi SE 6.9 mph - N/A   Mostly Cloudy
11:58 PM 82.4 °F 90.9 °F 77.2 °F 84% 30.02 in 10.0 mi SSE 8.1 mph - N/A   Clear